Time,TemperatureF,DewpointF,PressureIn,WindDirection,WindDirectionDegrees,WindSpeedMPH,WindSpeedGustMPH,Humidity,HourlyPrecipIn,Conditions,Clouds,dailyrainin,SolarRadiationWatts/m^2,SoftwareType,DateUTC
2013-01-05 00:04:00,8.3,-1.0,30.45,ESE,121,0.0,2.0,66,0.00,,,0.00,0,weatherlink.com 1.10,2013-01-05 07:04:00,
2013-01-05 00:20:00,8.5,-1.0,30.45,ESE,121,0.0,2.0,66,0.00,,,0.00,0,weatherlink.com 1.10,2013-01-05 07:20:00,
2013-01-05 00:35:00,8.8,-1.0,30.45,ESE,121,0.0,0.0,66,0.00,,,0.00,0,weatherlink.com 1.10,2013-01-05 07:35:00,
2013-01-05 00:50:00,9.6,0.0,30.45,ESE,121,0.0,0.0,64,0.00,,,0.00,0,weatherlink.com 1.10,2013-01-05 07:50:00,
2013-01-05 01:05:00,9.2,-1.0,30.45,ESE,121,0.0,2.0,64,0.00,,,0.00,0,weatherlink.com 1.10,2013-01-05 08:05:00,
2013-01-05 01:20:00,9.1,-1.0,30.45,ESE,119,0.0,2.0,64,0.00,,,0.00,0,weatherlink.com 1.10,2013-01-05 08:20:00,
2013-01-05 01:35:00,8.8,-1.0,30.45,ESE,119,0.0,0.0,66,0.00,,,0.00,0,weatherlink.com 1.10,2013-01-05 08:35:00,
2013-01-05 01:50:00,9.0,0.0,30.46,ESE,119,0.0,2.0,66,0.00,,,0.00,0,weatherlink.com 1.10,2013-01-05 08:50:00,
2013-01-05 02:05:00,9.4,0.0,30.46,ESE,102,1.0,2.0,66,0.00,,,0.00,0,weatherlink.com 1.10,2013-01-05 09:05:00,
2013-01-05 02:20:00,9.0,-1.0,30.47,ESE,109,0.0,0.0,65,0.00,,,0.00,0,weatherlink.com 1.10,2013-01-05 09:20:00,
2013-01-05 02:35:00,8.8,-1.0,30.46,ESE,109,0.0,1.0,66,0.00,,,0.00,0,weatherlink.com 1.10,2013-01-05 09:35:00,
2013-01-05 02:50:00,9.1,-1.0,30.48,ESE,109,0.0,0.0,65,0.00,,,0.00,0,weatherlink.com 1.10,2013-01-05 09:50:00,
2013-01-05 03:05:00,9.0,-1.0,30.48,ESE,109,0.0,0.0,65,0.00,,,0.00,0,weatherlink.com 1.10,2013-01-05 10:05:00,
2013-01-05 03:20:00,9.0,0.0,30.47,ESE,109,0.0,1.0,66,0.00,,,0.00,0,weatherlink.com 1.10,2013-01-05 10:20:00,
2013-01-05 03:35:00,9.8,-1.0,30.47,ESE,109,0.0,0.0,63,0.00,,,0.00,0,weatherlink.com 1.10,2013-01-05 10:35:00,
2013-01-05 03:51:00,10.0,0.0,30.48,ESE,109,0.0,0.0,63,0.00,,,0.00,0,weatherlink.com 1.10,2013-01-05 10:51:00,
2013-01-05 04:06:00,9.6,-1.0,30.48,ESE,109,0.0,0.0,63,0.00,,,0.00,0,weatherlink.com 1.10,2013-01-05 11:06:00,
2013-01-05 04:21:00,9.4,-1.0,30.48,ESE,109,0.0,0.0,64,0.00,,,0.00,0,weatherlink.com 1.10,2013-01-05 11:21:00,
2013-01-05 04:36:00,8.7,-1.0,30.48,ESE,109,0.0,0.0,65,0.00,,,0.00,0,weatherlink.com 1.10,2013-01-05 11:36:00,
2013-01-05 04:51:00,8.2,-1.0,30.49,ESE,109,0.0,0.0,66,0.00,,,0.00,0,weatherlink.com 1.10,2013-01-05 11:51:00,
2013-01-05 05:06:00,7.6,-1.0,30.50,ESE,109,0.0,1.0,69,0.00,,,0.00,0,weatherlink.com 1.10,2013-01-05 12:06:00,
2013-01-05 05:21:00,8.1,0.0,30.50,ESE,109,0.0,1.0,70,0.00,,,0.00,0,weatherlink.com 1.10,2013-01-05 12:21:00,
2013-01-05 05:36:00,9.6,1.0,30.51,ESE,109,0.0,0.0,67,0.00,,,0.00,0,weatherlink.com 1.10,2013-01-05 12:36:00,
2013-01-05 05:51:00,9.2,1.0,30.52,ESE,109,0.0,0.0,68,0.00,,,0.00,0,weatherlink.com 1.10,2013-01-05 12:51:00,
2013-01-05 06:06:00,8.5,0.0,30.51,ESE,109,0.0,0.0,69,0.00,,,0.00,0,weatherlink.com 1.10,2013-01-05 13:06:00,
2013-01-05 06:21:00,8.4,0.0,30.52,ESE,109,0.0,0.0,68,0.00,,,0.00,0,weatherlink.com 1.10,2013-01-05 13:21:00,
2013-01-05 06:36:00,9.0,0.0,30.52,ESE,109,0.0,0.0,67,0.00,,,0.00,0,weatherlink.com 1.10,2013-01-05 13:36:00,
2013-01-05 06:51:00,9.2,0.0,30.51,ESE,109,0.0,0.0,67,0.00,,,0.00,0,weatherlink.com 1.10,2013-01-05 13:51:00,
2013-01-05 07:07:00,9.2,0.0,30.51,ESE,109,0.0,1.0,67,0.00,,,0.00,0,weatherlink.com 1.10,2013-01-05 14:07:00,
2013-01-05 07:22:00,10.1,0.0,30.51,ESE,109,0.0,0.0,65,0.00,,,0.00,5,weatherlink.com 1.10,2013-01-05 14:22:00,
2013-01-05 07:37:00,10.7,1.0,30.53,ESE,109,0.0,0.0,64,0.00,,,0.00,9,weatherlink.com 1.10,2013-01-05 14:37:00,
2013-01-05 07:52:00,11.0,1.0,30.54,ESE,109,0.0,2.0,63,0.00,,,0.00,12,weatherlink.com 1.10,2013-01-05 14:52:00,
2013-01-05 08:07:00,12.0,0.0,30.54,ESE,109,0.0,0.0,60,0.00,,,0.00,14,weatherlink.com 1.10,2013-01-05 15:07:00,
2013-01-05 08:22:00,12.7,1.0,30.54,ESE,109,0.0,0.0,59,0.00,,,0.00,16,weatherlink.com 1.10,2013-01-05 15:22:00,
2013-01-05 08:37:00,13.2,0.0,30.54,ESE,109,0.0,0.0,57,0.00,,,0.00,19,weatherlink.com 1.10,2013-01-05 15:37:00,
2013-01-05 08:52:00,13.7,1.0,30.54,ESE,109,0.0,1.0,57,0.00,,,0.00,26,weatherlink.com 1.10,2013-01-05 15:52:00,
2013-01-05 09:07:00,14.7,2.0,30.54,ESE,109,0.0,0.0,56,0.00,,,0.00,37,weatherlink.com 1.10,2013-01-05 16:07:00,
2013-01-05 09:22:00,15.4,1.0,30.55,ESE,109,0.0,0.0,54,0.00,,,0.00,39,weatherlink.com 1.10,2013-01-05 16:22:00,
2013-01-05 09:37:00,16.1,2.0,30.55,ESE,109,0.0,0.0,53,0.00,,,0.00,40,weatherlink.com 1.10,2013-01-05 16:37:00,
2013-01-05 09:52:00,16.9,2.0,30.55,ESE,109,0.0,0.0,51,0.00,,,0.00,46,weatherlink.com 1.10,2013-01-05 16:52:00,
2013-01-05 10:07:00,18.1,1.0,30.55,ESE,110,0.0,1.0,48,0.00,,,0.00,47,weatherlink.com 1.10,2013-01-05 17:07:00,
2013-01-05 10:22:00,19.4,3.0,30.54,ESE,110,0.0,0.0,48,0.00,,,0.00,54,weatherlink.com 1.10,2013-01-05 17:22:00,
2013-01-05 10:38:00,23.6,1.0,30.54,North,360,0.0,0.0,38,0.00,,,0.00,281,weatherlink.com 1.10,2013-01-05 17:38:00,
2013-01-05 10:53:00,26.7,1.0,30.53,North,360,0.0,1.0,33,0.00,,,0.00,272,weatherlink.com 1.10,2013-01-05 17:53:00,
2013-01-05 11:08:00,28.1,-1.0,30.52,ESE,111,0.0,2.0,29,0.00,,,0.00,504,weatherlink.com 1.10,2013-01-05 18:08:00,
2013-01-05 11:23:00,29.9,-1.0,30.51,ESE,113,0.0,2.0,26,0.00,,,0.00,559,weatherlink.com 1.10,2013-01-05 18:23:00,
2013-01-05 11:38:00,30.2,-2.0,30.50,ESE,117,0.0,1.0,25,0.00,,,0.00,573,weatherlink.com 1.10,2013-01-05 18:38:00,
2013-01-05 11:53:00,31.9,-1.0,30.49,SE,144,0.0,2.0,24,0.00,,,0.00,584,weatherlink.com 1.10,2013-01-05 18:53:00,
2013-01-05 12:08:00,32.6,0.0,30.49,WNW,296,0.0,3.0,25,0.00,,,0.00,591,weatherlink.com 1.10,2013-01-05 19:08:00,
2013-01-05 12:23:00,33.4,-1.0,30.48,West,261,0.0,3.0,23,0.00,,,0.00,591,weatherlink.com 1.10,2013-01-05 19:23:00,
2013-01-05 12:38:00,33.4,4.0,30.47,West,260,3.0,3.0,29,0.00,,,0.00,591,weatherlink.com 1.10,2013-01-05 19:38:00,
2013-01-05 12:53:00,33.9,5.0,30.46,West,269,2.0,3.0,30,0.00,,,0.00,582,weatherlink.com 1.10,2013-01-05 19:53:00,
2013-01-05 13:08:00,33.7,7.0,30.46,WNW,283,2.0,4.0,32,0.00,,,0.00,128,weatherlink.com 1.10,2013-01-05 20:08:00,
2013-01-05 13:23:00,34.3,2.0,30.46,North,360,1.0,3.0,25,0.00,,,0.00,95,weatherlink.com 1.10,2013-01-05 20:23:00,
2013-01-05 13:38:00,34.5,1.0,30.46,North,360,0.0,3.0,24,0.00,,,0.00,116,weatherlink.com 1.10,2013-01-05 20:38:00,
2013-01-05 13:54:00,34.4,3.0,30.46,North,360,2.0,5.0,26,0.00,,,0.00,95,weatherlink.com 1.10,2013-01-05 20:54:00,
2013-01-05 14:09:00,34.7,6.0,30.45,NW,304,1.0,4.0,30,0.00,,,0.00,81,weatherlink.com 1.10,2013-01-05 21:09:00,
2013-01-05 14:24:00,36.9,5.0,30.45,West,275,0.0,3.0,26,0.00,,,0.00,100,weatherlink.com 1.10,2013-01-05 21:24:00,
2013-01-05 14:39:00,35.9,2.0,30.46,North,360,1.0,4.0,24,0.00,,,0.00,62,weatherlink.com 1.10,2013-01-05 21:39:00,
2013-01-05 14:54:00,35.1,4.0,30.46,North,360,0.0,3.0,27,0.00,,,0.00,98,weatherlink.com 1.10,2013-01-05 21:54:00,
2013-01-05 15:09:00,34.2,2.0,30.47,North,360,0.0,3.0,26,0.00,,,0.00,51,weatherlink.com 1.10,2013-01-05 22:09:00,
2013-01-05 15:24:00,33.4,9.0,30.47,North,360,2.0,3.0,36,0.01,,,0.01,69,weatherlink.com 1.10,2013-01-05 22:24:00,
2013-01-05 15:39:00,33.7,-2.0,30.48,North,360,1.0,3.0,22,0.01,,,0.01,58,weatherlink.com 1.10,2013-01-05 22:39:00,
2013-01-05 15:54:00,33.1,1.0,30.48,North,360,1.0,2.0,25,0.01,,,0.01,49,weatherlink.com 1.10,2013-01-05 22:54:00,
2013-01-05 16:09:00,32.7,0.0,30.48,WNW,290,0.0,2.0,25,0.01,,,0.01,37,weatherlink.com 1.10,2013-01-05 23:09:00,
2013-01-05 16:24:00,31.6,1.0,30.49,WNW,288,0.0,2.0,27,0.00,,,0.01,32,weatherlink.com 1.10,2013-01-05 23:24:00,
2013-01-05 16:39:00,30.6,-3.0,30.49,WNW,297,0.0,2.0,23,0.00,,,0.01,21,weatherlink.com 1.10,2013-01-05 23:39:00,
2013-01-05 16:54:00,29.3,-4.0,30.50,WNW,288,0.0,0.0,23,0.00,,,0.01,5,weatherlink.com 1.10,2013-01-05 23:54:00,
2013-01-05 17:10:00,26.9,-4.0,30.50,WNW,288,0.0,0.0,26,0.00,,,0.01,0,weatherlink.com 1.10,2013-01-06 00:10:00,
2013-01-05 17:25:00,26.5,-4.0,30.50,WNW,288,0.0,0.0,26,0.00,,,0.01,0,weatherlink.com 1.10,2013-01-06 00:25:00,
2013-01-05 17:40:00,25.2,-4.0,30.50,WNW,288,0.0,0.0,28,0.00,,,0.01,0,weatherlink.com 1.10,2013-01-06 00:40:00,
2013-01-05 17:55:00,24.7,-4.0,30.51,WNW,288,0.0,0.0,28,0.00,,,0.01,0,weatherlink.com 1.10,2013-01-06 00:55:00,
2013-01-05 18:10:00,25.1,-5.0,30.51,WNW,288,0.0,0.0,27,0.00,,,0.01,0,weatherlink.com 1.10,2013-01-06 01:10:00,
2013-01-05 18:25:00,24.8,-5.0,30.51,WNW,288,0.0,1.0,27,0.00,,,0.01,0,weatherlink.com 1.10,2013-01-06 01:25:00,
2013-01-05 18:40:00,25.0,-6.0,30.51,WNW,288,0.0,0.0,25,0.00,,,0.01,0,weatherlink.com 1.10,2013-01-06 01:40:00,
2013-01-05 18:55:00,24.1,-5.0,30.52,WNW,288,0.0,0.0,28,0.00,,,0.01,0,weatherlink.com 1.10,2013-01-06 01:55:00,
2013-01-05 19:10:00,24.1,-5.0,30.51,WNW,288,0.0,0.0,28,0.00,,,0.01,0,weatherlink.com 1.10,2013-01-06 02:10:00,
2013-01-05 19:25:00,23.7,-5.0,30.52,WNW,288,0.0,0.0,28,0.00,,,0.01,0,weatherlink.com 1.10,2013-01-06 02:25:00,
2013-01-05 19:40:00,23.5,-5.0,30.52,WNW,288,0.0,1.0,29,0.00,,,0.01,0,weatherlink.com 1.10,2013-01-06 02:40:00,
2013-01-05 19:55:00,22.5,-5.0,30.52,WNW,288,0.0,0.0,29,0.00,,,0.01,0,weatherlink.com 1.10,2013-01-06 02:55:00,
2013-01-05 20:10:00,23.0,-5.0,30.52,WNW,288,0.0,0.0,29,0.00,,,0.01,0,weatherlink.com 1.10,2013-01-06 03:10:00,
2013-01-05 20:25:00,22.8,-5.0,30.52,WNW,288,0.0,0.0,29,0.00,,,0.01,0,weatherlink.com 1.10,2013-01-06 03:25:00,
2013-01-05 20:40:00,22.2,-5.0,30.52,WNW,288,0.0,0.0,30,0.00,,,0.01,0,weatherlink.com 1.10,2013-01-06 03:40:00,
2013-01-05 20:55:00,21.6,-5.0,30.51,WNW,288,0.0,0.0,31,0.00,,,0.01,0,weatherlink.com 1.10,2013-01-06 03:55:00,
2013-01-05 21:10:00,21.8,-5.0,30.52,WNW,288,0.0,0.0,31,0.00,,,0.01,0,weatherlink.com 1.10,2013-01-06 04:10:00,
2013-01-05 21:26:00,22.8,-4.0,30.52,WNW,288,0.0,0.0,30,0.00,,,0.01,0,weatherlink.com 1.10,2013-01-06 04:26:00,
2013-01-05 21:41:00,22.5,-3.0,30.52,WNW,288,0.0,0.0,33,0.00,,,0.01,0,weatherlink.com 1.10,2013-01-06 04:41:00,
2013-01-05 21:56:00,21.6,-4.0,30.52,WNW,288,0.0,0.0,33,0.00,,,0.01,0,weatherlink.com 1.10,2013-01-06 04:56:00,
2013-01-05 22:11:00,20.9,-3.0,30.52,WNW,288,0.0,0.0,35,0.00,,,0.01,0,weatherlink.com 1.10,2013-01-06 05:11:00,
2013-01-05 22:26:00,20.6,-4.0,30.51,WNW,288,0.0,0.0,34,0.00,,,0.01,0,weatherlink.com 1.10,2013-01-06 05:26:00,
2013-01-05 22:41:00,20.2,-4.0,30.52,WNW,288,0.0,0.0,35,0.00,,,0.01,0,weatherlink.com 1.10,2013-01-06 05:41:00,
2013-01-05 22:56:00,19.2,-3.0,30.52,WNW,288,0.0,0.0,37,0.00,,,0.01,0,weatherlink.com 1.10,2013-01-06 05:56:00,
2013-01-05 23:11:00,18.7,-3.0,30.52,WNW,288,0.0,0.0,39,0.00,,,0.01,0,weatherlink.com 1.10,2013-01-06 06:11:00,
2013-01-05 23:26:00,20.6,-3.0,30.51,WNW,288,0.0,0.0,35,0.00,,,0.01,0,weatherlink.com 1.10,2013-01-06 06:26:00,
2013-01-05 23:41:00,20.7,-3.0,30.50,WNW,288,0.0,0.0,36,0.00,,,0.01,0,weatherlink.com 1.10,2013-01-06 06:41:00,
2013-01-05 23:56:00,20.0,-2.0,30.50,WNW,288,0.0,0.0,38,0.00,,,0.01,0,weatherlink.com 1.10,2013-01-06 06:56:00,